Regional Weather Roundup
Issued by NWS

Home | Current Version | Previous Version | Text Only | Print | Product List | Glossary Off
Versions: 1 2 3 4 5 6 7 8 9 10 11 12 13 14 15 16 17 18 19 20 21 22 23 24 25 26 27 28 29 30 31 32 33 34 35 36 37 38 39 40 41 42 43 44 45 46 47 48 49 50

000
ASUS43 KIND 010109
RWRIN

WEATHER ROUNDUP FOR INDIANA
NATIONAL WEATHER SERVICE INDIANAPOLIS IN
900 PM EDT MON AUG 31 2015

NOTE: "FAIR" INDICATES FEW OR NO CLOUDS BELOW 12,000 FEET WITH NO
SIGNIFICANT WEATHER AND/OR OBSTRUCTIONS TO VISIBILITY.

* - STATION DOES NOT REPORT WEATHER SUCH AS PRECIPITATION OR FOG.

+ - STATION NOT QUALITY CONTROLLED BY THE NATIONAL WEATHER SERVICE.
    USE DATA WITH CAUTION...ESPECIALLY DEWPOINT AND RELATIVE
    HUMIDITY OBSERVATIONS.

INZ001>003-010>013-019-020-010200-
NORTHWEST INDIANA

CITY           SKY/WX    TMP DP  RH WIND       PRES   REMARKS
GARY /AIRPORT/ PTCLDY    73  70  88 CALM      30.03R FOG
KNOX *+        CLEAR     73  70  88 SE3       30.03R
LA PORTE +     CLEAR     75  75 100 CALM      30.05R
MICHIGAN CITY+ CLEAR     72  72 100 CALM      30.04R FOG
MONTICELLO +   CLEAR     77  71  81 SW3       30.03S
RENSSELAER +   CLEAR     73  72  94 S3        30.04S
VALPARAISO     PTCLDY    75  70  84 CALM      30.04R

$$

LMZ046-743>745-010200-
SOUTHERN LAKE MICHIGAN

STATION/POSITION TIME  TEMP    WIND        PRES    WAVE
                       AIR SEA DIR/SP/G            HT
                 (UTC) (F)     (DEG/KT/KT) (MB)    (FT)
BURNS HARBOR     0000   74      80/  6/  7 1016.9S
MICHIGAN CITY    0000   76      40/  7/  7   N/A
5NW MICH CITY    0100   73 72  100/  6/  6   N/A     1

$$

INZ004-005-014>016-021>024-010200-
NORTH CENTRAL INDIANA

CITY           SKY/WX    TMP DP  RH WIND       PRES   REMARKS
ELKHART        CLEAR     73  70  88 CALM      30.05S
GOSHEN         CLEAR     75  69  81 NE3       30.05R
LOGANSPORT +   CLEAR     73  63  68 SW5       30.06R
PERU/GRISSOM   PTCLDY    75  69  79 SW5       30.05R
ROCHESTER +    PTCLDY    79  73  83 CALM      30.06R
SOUTH BEND     CLEAR     74  70  87 CALM      30.05R
WARSAW +       MOCLDY    73  70  88 CALM      30.06R

$$

INZ006>009-017-018-025>027-010200-
NORTHEAST INDIANA

CITY           SKY/WX    TMP DP  RH WIND       PRES   REMARKS
ANGOLA *+      CLEAR     73  66  78 CALM      30.07R
AUBURN +       CLEAR     73  70  88 CALM      30.07R
FORT WAYNE     PTCLDY    75  70  84 S5        30.06R
HUNTINGTON +   PTCLDY    75  68  77 CALM      30.06R

$$

INZ028-029-035-036-043>045-051>053-010200-
WEST CENTRAL INDIANA

CITY           SKY/WX    TMP DP  RH WIND       PRES   REMARKS
CRAWFORDSVL +  CLEAR     71  66  84 S5        30.07R
GREENCASTLE +  CLEAR     72  64  78 CALM      30.08R
LAFAYETTE      CLEAR     76  68  76 CALM      30.04R
TERRE HAUTE    MOCLDY    79  68  69 S3        30.06R

$$

INZ030>032-037>040-046>048-054>057-064-065-010200-
CENTRAL INDIANA

CITY           SKY/WX    TMP DP  RH WIND       PRES   REMARKS
FRANKFORT +    CLEAR     74  70  85 CALM      30.08S
GREENWOOD *+   CLEAR     75  64  69 SW3       30.08R
INDIANAPOLIS   PTCLDY    77  67  71 SW7       30.07R
-EAGLE CREEK   CLEAR     78  68  71 S3        30.07R
KOKOMO *+      CLEAR     75  66  73 S5        30.06R
MARION +       PTCLDY    75  63  65 CALM      30.07R
MT COMFORT *+  CLEAR     75  66  73 SW5       30.08R
SHELBYVILLE    CLEAR     77  68  73 SW6       30.07R
ZIONSVILLE +   CLOUDY    77  67  71 SW3       30.08S

$$

INZ033-034-041-042-049-050-058-059-010200-
EAST CENTRAL INDIANA

CITY           SKY/WX    TMP DP  RH WIND       PRES   REMARKS
MUNCIE         MOCLDY    74  65  73 E6        30.08R

$$

INZ060-061-067>069-081>083-085>088-010200-
SOUTHWEST INDIANA

CITY           SKY/WX    TMP DP  RH WIND       PRES   REMARKS
EVANSVILLE     CLEAR     80  67  64 S3        30.07R
HUNTINGBURG *+ CLEAR     77  66  69 S3        30.08R
WASHINGTON +   CLEAR     74  69  82 CALM      30.06R

$$

INZ062-063-066-070>080-084-089>092-010200-
SOUTH CENTRAL AND SOUTHEAST INDIANA

CITY           SKY/WX    TMP DP  RH WIND       PRES   REMARKS
BLOOMINGTON    CLEAR     73  70  90 CALM      30.08R
MADISON *+     PTCLDY    72  68  88 CALM      30.10S
NORTH VERNON + PTCLDY    77  70  78 CALM      30.09R
SEYMOUR +      PTCLDY    77  68  73 CALM      30.07R

$$




USA.gov is the U.S. government's official web portal to all federal, state and local government web resources and services.